Year,Month,Day,Hour,Minute,Value (Times are PST for insolation in W/m^2)
2019,06,27,00,00,0.00
2019,06,27,00,01,0.00
2019,06,27,00,02,0.00
2019,06,27,00,03,0.00
2019,06,27,00,04,0.00
2019,06,27,00,05,0.00
2019,06,27,00,06,0.00
2019,06,27,00,07,0.00
2019,06,27,00,08,0.00
2019,06,27,00,09,0.00
2019,06,27,00,10,0.00
2019,06,27,00,11,0.00
2019,06,27,00,12,0.00
2019,06,27,00,13,0.00
2019,06,27,00,14,0.00
2019,06,27,00,15,0.00
2019,06,27,00,16,0.00
2019,06,27,00,17,0.00
2019,06,27,00,18,0.00
2019,06,27,00,19,0.00
2019,06,27,00,20,0.00
2019,06,27,00,21,0.00
2019,06,27,00,22,0.00
2019,06,27,00,23,0.00
2019,06,27,00,24,0.00
2019,06,27,00,25,0.00
2019,06,27,00,26,0.00
2019,06,27,00,27,0.00
2019,06,27,00,28,0.00
2019,06,27,00,29,0.00
2019,06,27,00,30,0.00
2019,06,27,00,31,0.00
2019,06,27,00,32,0.00
2019,06,27,00,33,0.00
2019,06,27,00,34,0.00
2019,06,27,00,35,0.00
2019,06,27,00,36,0.00
2019,06,27,00,37,0.00
2019,06,27,00,38,0.00
2019,06,27,00,39,0.00
2019,06,27,00,40,0.00
2019,06,27,00,41,0.00
2019,06,27,00,42,0.00
2019,06,27,00,43,0.00
2019,06,27,00,44,0.00
2019,06,27,00,45,0.00
2019,06,27,00,46,0.00
2019,06,27,00,47,0.00
2019,06,27,00,48,0.00
2019,06,27,00,49,0.00
2019,06,27,00,50,0.00
2019,06,27,00,51,0.00
2019,06,27,00,52,0.00
2019,06,27,00,53,0.00
2019,06,27,00,54,0.00
2019,06,27,00,55,0.00
2019,06,27,00,56,0.00
2019,06,27,00,57,0.00
2019,06,27,00,58,0.00
2019,06,27,00,59,0.00
2019,06,27,01,00,0.00
2019,06,27,01,01,0.00
2019,06,27,01,02,0.00
2019,06,27,01,03,0.00
2019,06,27,01,04,0.00
2019,06,27,01,05,0.00
2019,06,27,01,06,0.00
2019,06,27,01,07,0.00
2019,06,27,01,08,0.00
2019,06,27,01,09,0.00
2019,06,27,01,10,0.00
2019,06,27,01,11,0.00
2019,06,27,01,12,0.00
2019,06,27,01,13,0.00
2019,06,27,01,14,0.00
2019,06,27,01,15,0.00
2019,06,27,01,16,0.00
2019,06,27,01,17,0.00
2019,06,27,01,18,0.00
2019,06,27,01,19,0.00
2019,06,27,01,20,0.00
2019,06,27,01,21,0.00
2019,06,27,01,22,0.00
2019,06,27,01,23,0.00
2019,06,27,01,24,0.00
2019,06,27,01,25,0.00
2019,06,27,01,26,0.00
2019,06,27,01,27,0.00
2019,06,27,01,28,0.00
2019,06,27,01,29,0.00
2019,06,27,01,30,0.00
2019,06,27,01,31,0.00
2019,06,27,01,32,0.00
2019,06,27,01,33,0.00
2019,06,27,01,34,0.00
2019,06,27,01,35,0.00
2019,06,27,01,36,0.00
2019,06,27,01,37,0.00
2019,06,27,01,38,0.00
2019,06,27,01,39,0.00
2019,06,27,01,40,0.00
2019,06,27,01,41,0.00
2019,06,27,01,42,0.00
2019,06,27,01,43,0.00
2019,06,27,01,44,0.00
2019,06,27,01,45,0.00
2019,06,27,01,46,0.00
2019,06,27,01,47,0.00
2019,06,27,01,48,0.00
2019,06,27,01,49,0.00
2019,06,27,01,50,0.00
2019,06,27,01,51,0.00
2019,06,27,01,52,0.00
2019,06,27,01,53,0.00
2019,06,27,01,54,0.00
2019,06,27,01,55,0.00
2019,06,27,01,56,0.00
2019,06,27,01,57,0.00
2019,06,27,01,58,0.00
2019,06,27,01,59,0.00
2019,06,27,02,00,0.00
2019,06,27,02,01,0.00
2019,06,27,02,02,0.00
2019,06,27,02,03,0.00
2019,06,27,02,04,0.00
2019,06,27,02,05,0.00
2019,06,27,02,06,0.00
2019,06,27,02,07,0.00
2019,06,27,02,08,0.00
2019,06,27,02,09,0.00
2019,06,27,02,10,0.00
2019,06,27,02,11,0.00
2019,06,27,02,12,0.00
2019,06,27,02,13,0.00
2019,06,27,02,14,0.00
2019,06,27,02,15,0.00
2019,06,27,02,16,0.00
2019,06,27,02,17,0.00
2019,06,27,02,18,0.00
2019,06,27,02,19,0.00
2019,06,27,02,20,0.00
2019,06,27,02,21,0.00
2019,06,27,02,22,0.00
2019,06,27,02,23,0.00
2019,06,27,02,24,0.00
2019,06,27,02,25,0.00
2019,06,27,02,26,0.00
2019,06,27,02,27,0.00
2019,06,27,02,28,0.00
2019,06,27,02,29,0.00
2019,06,27,02,30,0.00
2019,06,27,02,31,0.00
2019,06,27,02,32,0.00
2019,06,27,02,33,0.00
2019,06,27,02,34,0.00
2019,06,27,02,35,0.00
2019,06,27,02,36,0.00
2019,06,27,02,37,0.00
2019,06,27,02,38,0.00
2019,06,27,02,39,0.00
2019,06,27,02,40,0.00
2019,06,27,02,41,0.00
2019,06,27,02,42,0.00
2019,06,27,02,43,0.00
2019,06,27,02,44,0.00
2019,06,27,02,45,0.00
2019,06,27,02,46,0.00
2019,06,27,02,47,0.00
2019,06,27,02,48,0.00
2019,06,27,02,49,0.00
2019,06,27,02,50,0.00
2019,06,27,02,51,0.00
2019,06,27,02,52,0.00
2019,06,27,02,53,0.00
2019,06,27,02,54,0.00
2019,06,27,02,55,0.00
2019,06,27,02,56,0.00
2019,06,27,02,57,0.00
2019,06,27,02,58,0.00
2019,06,27,02,59,0.00
2019,06,27,03,00,0.00
2019,06,27,03,01,0.00
2019,06,27,03,02,0.00
2019,06,27,03,03,0.00
2019,06,27,03,04,0.00
2019,06,27,03,05,0.00
2019,06,27,03,06,0.00
2019,06,27,03,07,0.00
2019,06,27,03,08,0.00
2019,06,27,03,09,0.00
2019,06,27,03,10,0.00
2019,06,27,03,11,0.00
2019,06,27,03,12,0.00
2019,06,27,03,13,0.00
2019,06,27,03,14,0.00
2019,06,27,03,15,0.00
2019,06,27,03,16,0.00
2019,06,27,03,17,0.00
2019,06,27,03,18,0.00
2019,06,27,03,19,0.00
2019,06,27,03,20,0.00
2019,06,27,03,21,0.00
2019,06,27,03,22,0.00
2019,06,27,03,23,0.00
2019,06,27,03,24,0.00
2019,06,27,03,25,0.00
2019,06,27,03,26,0.00
2019,06,27,03,27,0.00
2019,06,27,03,28,0.00
2019,06,27,03,29,0.00
2019,06,27,03,30,0.00
2019,06,27,03,31,0.00
2019,06,27,03,32,0.00
2019,06,27,03,33,0.00
2019,06,27,03,34,0.00
2019,06,27,03,35,0.00
2019,06,27,03,36,0.00
2019,06,27,03,37,0.00
2019,06,27,03,38,0.00
2019,06,27,03,39,0.00
2019,06,27,03,40,0.00
2019,06,27,03,41,0.00
2019,06,27,03,42,0.00
2019,06,27,03,43,0.00
2019,06,27,03,44,0.00
2019,06,27,03,45,0.00
2019,06,27,03,46,0.00
2019,06,27,03,47,0.00
2019,06,27,03,48,0.00
2019,06,27,03,49,0.00
2019,06,27,03,50,0.00
2019,06,27,03,51,0.00
2019,06,27,03,52,0.00
2019,06,27,03,53,0.00
2019,06,27,03,54,0.00
2019,06,27,03,55,0.00
2019,06,27,03,56,0.00
2019,06,27,03,57,0.00
2019,06,27,03,58,0.00
2019,06,27,03,59,0.00
2019,06,27,04,00,0.00
2019,06,27,04,01,0.00
2019,06,27,04,02,0.00
2019,06,27,04,03,0.00
2019,06,27,04,04,0.00
2019,06,27,04,05,0.00
2019,06,27,04,06,0.00
2019,06,27,04,07,0.00
2019,06,27,04,08,0.00
2019,06,27,04,09,0.00
2019,06,27,04,10,0.00
2019,06,27,04,11,0.00
2019,06,27,04,12,0.00
2019,06,27,04,13,0.00
2019,06,27,04,14,0.00
2019,06,27,04,15,0.00
2019,06,27,04,16,0.00
2019,06,27,04,17,0.00
2019,06,27,04,18,0.00
2019,06,27,04,19,0.00
2019,06,27,04,20,0.00
2019,06,27,04,21,0.00
2019,06,27,04,22,0.00
2019,06,27,04,23,0.00
2019,06,27,04,24,0.00
2019,06,27,04,25,0.00
2019,06,27,04,26,0.00
2019,06,27,04,27,0.00
2019,06,27,04,28,0.00
2019,06,27,04,29,0.00
2019,06,27,04,30,0.00
2019,06,27,04,31,0.00
2019,06,27,04,32,0.00
2019,06,27,04,33,0.00
2019,06,27,04,34,0.00
2019,06,27,04,35,0.00
2019,06,27,04,36,0.00
2019,06,27,04,37,0.00
2019,06,27,04,38,0.00
2019,06,27,04,39,0.00
2019,06,27,04,40,0.00
2019,06,27,04,41,0.00
2019,06,27,04,42,0.00
2019,06,27,04,43,0.00
2019,06,27,04,44,0.00
2019,06,27,04,45,0.00
2019,06,27,04,46,0.00
2019,06,27,04,47,0.00
2019,06,27,04,48,0.00
2019,06,27,04,49,0.00
2019,06,27,04,50,0.00
2019,06,27,04,51,0.00
2019,06,27,04,52,0.00
2019,06,27,04,53,0.00
2019,06,27,04,54,0.00
2019,06,27,04,55,0.00
2019,06,27,04,56,0.00
2019,06,27,04,57,0.00
2019,06,27,04,58,0.00
2019,06,27,04,59,0.00
2019,06,27,05,00,0.00
2019,06,27,05,01,0.00
2019,06,27,05,02,0.00
2019,06,27,05,03,0.00
2019,06,27,05,04,0.00
2019,06,27,05,05,0.00
2019,06,27,05,06,0.00
2019,06,27,05,07,0.00
2019,06,27,05,08,0.00
2019,06,27,05,09,0.00
2019,06,27,05,10,0.00
2019,06,27,05,11,0.00
2019,06,27,05,12,0.00
2019,06,27,05,13,0.00
2019,06,27,05,14,0.00
2019,06,27,05,15,0.00
2019,06,27,05,16,0.00
2019,06,27,05,17,0.00
2019,06,27,05,18,0.00
2019,06,27,05,19,0.00
2019,06,27,05,20,0.00
2019,06,27,05,21,0.00
2019,06,27,05,22,0.00
2019,06,27,05,23,0.00
2019,06,27,05,24,0.00
2019,06,27,05,25,0.00
2019,06,27,05,26,0.00
2019,06,27,05,27,0.00
2019,06,27,05,28,0.00
2019,06,27,05,29,0.00
2019,06,27,05,30,0.00
2019,06,27,05,31,0.00
2019,06,27,05,32,0.00
2019,06,27,05,33,0.00
2019,06,27,05,34,0.00
2019,06,27,05,35,0.00
2019,06,27,05,36,0.00
2019,06,27,05,37,0.00
2019,06,27,05,38,0.00
2019,06,27,05,39,0.00
2019,06,27,05,40,0.00
2019,06,27,05,41,0.00
2019,06,27,05,42,0.00
2019,06,27,05,43,0.00
2019,06,27,05,44,0.00
2019,06,27,05,45,0.00
2019,06,27,05,46,0.00
2019,06,27,05,47,0.00
2019,06,27,05,48,0.00
2019,06,27,05,49,0.00
2019,06,27,05,50,0.00
2019,06,27,05,51,0.00
2019,06,27,05,52,0.00
2019,06,27,05,53,0.00
2019,06,27,05,54,0.00
2019,06,27,05,55,0.00
2019,06,27,05,56,0.00
2019,06,27,05,57,0.00
2019,06,27,05,58,0.00
2019,06,27,05,59,0.00
2019,06,27,06,00,0.00
2019,06,27,06,01,0.00
2019,06,27,06,02,0.00
2019,06,27,06,03,0.00
2019,06,27,06,04,0.00
2019,06,27,06,05,0.00
2019,06,27,06,06,0.00
2019,06,27,06,07,0.00
2019,06,27,06,08,0.00
2019,06,27,06,09,0.00
2019,06,27,06,10,0.00
2019,06,27,06,11,0.00
2019,06,27,06,12,0.00
2019,06,27,06,13,3.70
2019,06,27,06,14,5.00
2019,06,27,06,15,5.00
2019,06,27,06,16,5.00
2019,06,27,06,17,5.00
2019,06,27,06,18,5.00
2019,06,27,06,19,6.40
2019,06,27,06,20,7.00
2019,06,27,06,21,7.00
2019,06,27,06,22,7.00
2019,06,27,06,23,8.40
2019,06,27,06,24,9.00
2019,06,27,06,25,9.00
2019,06,27,06,26,7.60
2019,06,27,06,27,7.00
2019,06,27,06,28,7.00
2019,06,27,06,29,7.00
2019,06,27,06,30,7.00
2019,06,27,06,31,7.00
2019,06,27,06,32,7.00
2019,06,27,06,33,8.40
2019,06,27,06,34,9.00
2019,06,27,06,35,9.00
2019,06,27,06,36,9.00
2019,06,27,06,37,9.00
2019,06,27,06,38,10.50
2019,06,27,06,39,11.00
2019,06,27,06,40,11.00
2019,06,27,06,41,11.00
2019,06,27,06,42,11.00
2019,06,27,06,43,11.00
2019,06,27,06,44,11.00
2019,06,27,06,45,11.00
2019,06,27,06,46,11.70
2019,06,27,06,47,12.00
2019,06,27,06,48,12.00
2019,06,27,06,49,12.00
2019,06,27,06,50,13.40
2019,06,27,06,51,15.40
2019,06,27,06,52,17.40
2019,06,27,06,53,18.00
2019,06,27,06,54,18.00
2019,06,27,06,55,16.60
2019,06,27,06,56,16.00
2019,06,27,06,57,16.00
2019,06,27,06,58,16.00
2019,06,27,06,59,16.00
2019,06,27,07,00,16.00
2019,06,27,07,01,16.00
2019,06,27,07,02,16.00
2019,06,27,07,03,16.00
2019,06,27,07,04,17.40
2019,06,27,07,05,18.70
2019,06,27,07,06,19.00
2019,06,27,07,07,20.40
2019,06,27,07,08,21.00
2019,06,27,07,09,21.00
2019,06,27,07,10,22.40
2019,06,27,07,11,24.40
2019,06,27,07,12,25.00
2019,06,27,07,13,25.00
2019,06,27,07,14,25.00
2019,06,27,07,15,25.70
2019,06,27,07,16,27.40
2019,06,27,07,17,28.00
2019,06,27,07,18,28.00
2019,06,27,07,19,28.00
2019,06,27,07,20,28.00
2019,06,27,07,21,28.00
2019,06,27,07,22,28.00
2019,06,27,07,23,29.40
2019,06,27,07,24,30.00
2019,06,27,07,25,30.00
2019,06,27,07,26,31.40
2019,06,27,07,27,32.00
2019,06,27,07,28,34.10
2019,06,27,07,29,35.00
2019,06,27,07,30,36.40
2019,06,27,07,31,38.40
2019,06,27,07,32,39.00
2019,06,27,07,33,39.70
2019,06,27,07,34,41.40
2019,06,27,07,35,43.40
2019,06,27,07,36,45.40
2019,06,27,07,37,46.00
2019,06,27,07,38,46.70
2019,06,27,07,39,47.00
2019,06,27,07,40,48.40
2019,06,27,07,41,49.00
2019,06,27,07,42,49.00
2019,06,27,07,43,49.00
2019,06,27,07,44,49.00
2019,06,27,07,45,49.00
2019,06,27,07,46,49.00
2019,06,27,07,47,49.00
2019,06,27,07,48,49.00
2019,06,27,07,49,49.00
2019,06,27,07,50,50.40
2019,06,27,07,51,51.00
2019,06,27,07,52,51.00
2019,06,27,07,53,52.40
2019,06,27,07,54,53.70
2019,06,27,07,55,56.80
2019,06,27,07,56,59.40
2019,06,27,07,57,60.00
2019,06,27,07,58,61.40
2019,06,27,07,59,62.00
2019,06,27,08,00,62.70
2019,06,27,08,01,64.50
2019,06,27,08,02,67.90
2019,06,27,08,03,71.10
2019,06,27,08,04,73.40
2019,06,27,08,05,76.10
2019,06,27,08,06,78.40
2019,06,27,08,07,79.00
2019,06,27,08,08,80.40
2019,06,27,08,09,83.10
2019,06,27,08,10,84.00
2019,06,27,08,11,84.00
2019,06,27,08,12,84.00
2019,06,27,08,13,84.00
2019,06,27,08,14,84.00
2019,06,27,08,15,84.00
2019,06,27,08,16,85.40
2019,06,27,08,17,87.40
2019,06,27,08,18,89.40
2019,06,27,08,19,92.10
2019,06,27,08,20,94.40
2019,06,27,08,21,97.10
2019,06,27,08,22,99.40
2019,06,27,08,23,101.40
2019,06,27,08,24,103.40
2019,06,27,08,25,104.00
2019,06,27,08,26,102.60
2019,06,27,08,27,102.00
2019,06,27,08,28,102.00
2019,06,27,08,29,102.00
2019,06,27,08,30,102.00
2019,06,27,08,31,102.00
2019,06,27,08,32,103.40
2019,06,27,08,33,104.70
2019,06,27,08,34,107.80
2019,06,27,08,35,111.80
2019,06,27,08,36,116.50
2019,06,27,08,37,121.50
2019,06,27,08,38,126.50
2019,06,27,08,39,132.20
2019,06,27,08,40,137.50
2019,06,27,08,41,141.10
2019,06,27,08,42,144.90
2019,06,27,08,43,147.40
2019,06,27,08,44,150.10
2019,06,27,08,45,152.40
2019,06,27,08,46,154.40
2019,06,27,08,47,155.70
2019,06,27,08,48,157.40
2019,06,27,08,49,160.80
2019,06,27,08,50,164.10
2019,06,27,08,51,167.80
2019,06,27,08,52,171.10
2019,06,27,08,53,173.40
2019,06,27,08,54,175.40
2019,06,27,08,55,174.60
2019,06,27,08,56,174.00
2019,06,27,08,57,172.60
2019,06,27,08,58,173.40
2019,06,27,08,59,176.80
2019,06,27,09,00,182.90
2019,06,27,09,01,190.60
2019,06,27,09,02,204.20
2019,06,27,09,03,210.40
2019,06,27,09,04,218.00
2019,06,27,09,05,226.60
2019,06,27,09,06,236.00
2019,06,27,09,07,240.40
2019,06,27,09,08,239.60
2019,06,27,09,09,241.80
2019,06,27,09,10,246.50
2019,06,27,09,11,250.10
2019,06,27,09,12,252.40
2019,06,27,09,13,259.30
2019,06,27,09,14,259.20
2019,06,27,09,15,249.60
2019,06,27,09,16,234.80
2019,06,27,09,17,229.30
2019,06,27,09,18,232.50
2019,06,27,09,19,238.90
2019,06,27,09,20,241.00
2019,06,27,09,21,243.10
2019,06,27,09,22,244.00
2019,06,27,09,23,245.40
2019,06,27,09,24,247.40
2019,06,27,09,25,249.40
2019,06,27,09,26,250.00
2019,06,27,09,27,250.00
2019,06,27,09,28,254.90
2019,06,27,09,29,259.10
2019,06,27,09,30,263.50
2019,06,27,09,31,269.20
2019,06,27,09,32,276.60
2019,06,27,09,33,295.10
2019,06,27,09,34,309.70
2019,06,27,09,35,324.90
2019,06,27,09,36,355.20
2019,06,27,09,37,379.30
2019,06,27,09,38,372.40
2019,06,27,09,39,381.00
2019,06,27,09,40,433.90
2019,06,27,09,41,454.00
2019,06,27,09,42,449.80
2019,06,27,09,43,511.00
2019,06,27,09,44,471.50
2019,06,27,09,45,443.00
2019,06,27,09,46,628.50
2019,06,27,09,47,708.00
2019,06,27,09,48,532.30
2019,06,27,09,49,471.70
2019,06,27,09,50,521.40
2019,06,27,09,51,608.60
2019,06,27,09,52,638.00
2019,06,27,09,53,564.50
2019,06,27,09,54,533.00
2019,06,27,09,55,499.40
2019,06,27,09,56,481.50
2019,06,27,09,57,476.50
2019,06,27,09,58,463.80
2019,06,27,09,59,455.50
2019,06,27,10,00,463.80
2019,06,27,10,01,458.90
2019,06,27,10,02,455.00
2019,06,27,10,03,455.00
2019,06,27,10,04,493.50
2019,06,27,10,05,544.30
2019,06,27,10,06,559.00
2019,06,27,10,07,559.00
2019,06,27,10,08,559.00
2019,06,27,10,09,559.00
2019,06,27,10,10,520.50
2019,06,27,10,11,485.80
2019,06,27,10,12,485.70
2019,06,27,10,13,502.30
2019,06,27,10,14,537.40
2019,06,27,10,15,569.60
2019,06,27,10,16,535.30
2019,06,27,10,17,470.10
2019,06,27,10,18,410.80
2019,06,27,10,19,376.10
2019,06,27,10,20,349.80
2019,06,27,10,21,335.30
2019,06,27,10,22,323.60
2019,06,27,10,23,306.70
2019,06,27,10,24,289.80
2019,06,27,10,25,271.00
2019,06,27,10,26,256.60
2019,06,27,10,27,244.60
2019,06,27,10,28,234.70
2019,06,27,10,29,232.00
2019,06,27,10,30,232.00
2019,06,27,10,31,235.50
2019,06,27,10,32,241.90
2019,06,27,10,33,248.20
2019,06,27,10,34,250.70
2019,06,27,10,35,250.30
2019,06,27,10,36,245.80
2019,06,27,10,37,240.50
2019,06,27,10,38,236.90
2019,06,27,10,39,236.00
2019,06,27,10,40,240.90
2019,06,27,10,41,251.40
2019,06,27,10,42,269.70
2019,06,27,10,43,276.00
2019,06,27,10,44,274.60
2019,06,27,10,45,274.00
2019,06,27,10,46,272.60
2019,06,27,10,47,271.30
2019,06,27,10,48,279.40
2019,06,27,10,49,301.20
2019,06,27,10,50,334.20
2019,06,27,10,51,373.00
2019,06,27,10,52,403.20
2019,06,27,10,53,405.40
2019,06,27,10,54,403.00
2019,06,27,10,55,403.00
2019,06,27,10,56,630.50
2019,06,27,10,57,728.00
2019,06,27,10,58,728.00
2019,06,27,10,59,728.00
2019,06,27,11,00,623.00
2019,06,27,11,01,572.40
2019,06,27,11,02,552.50
2019,06,27,11,03,545.00
2019,06,27,11,04,606.60
2019,06,27,11,05,570.00
2019,06,27,11,06,517.10
2019,06,27,11,07,539.60
2019,06,27,11,08,554.00
2019,06,27,11,09,484.70
2019,06,27,11,10,469.00
2019,06,27,11,11,510.70
2019,06,27,11,12,464.40
2019,06,27,11,13,421.90
2019,06,27,11,14,424.80
2019,06,27,11,15,417.80
2019,06,27,11,16,414.40
2019,06,27,11,17,407.30
2019,06,27,11,18,397.00
2019,06,27,11,19,389.10
2019,06,27,11,20,389.10
2019,06,27,11,21,391.40
2019,06,27,11,22,403.20
2019,06,27,11,23,406.60
2019,06,27,11,24,397.60
2019,06,27,11,25,387.70
2019,06,27,11,26,381.50
2019,06,27,11,27,377.20
2019,06,27,11,28,376.00
2019,06,27,11,29,377.40
2019,06,27,11,30,386.40
2019,06,27,11,31,404.70
2019,06,27,11,32,425.00
2019,06,27,11,33,431.70
2019,06,27,11,34,432.00
2019,06,27,11,35,450.40
2019,06,27,11,36,469.60
2019,06,27,11,37,470.10
2019,06,27,11,38,452.60
2019,06,27,11,39,439.00
2019,06,27,11,40,434.60
2019,06,27,11,41,424.20
2019,06,27,11,42,413.00
2019,06,27,11,43,412.10
2019,06,27,11,44,413.00
2019,06,27,11,45,406.00
2019,06,27,11,46,377.10
2019,06,27,11,47,356.20
2019,06,27,11,48,352.00
2019,06,27,11,49,347.80
2019,06,27,11,50,347.40
2019,06,27,11,51,348.00
2019,06,27,11,52,344.50
2019,06,27,11,53,331.80
2019,06,27,11,54,317.20
2019,06,27,11,55,306.70
2019,06,27,11,56,301.90
2019,06,27,11,57,296.00
2019,06,27,11,58,291.10
2019,06,27,11,59,293.50
2019,06,27,12,00,308.30
2019,06,27,12,01,330.50
2019,06,27,12,02,353.40
2019,06,27,12,03,376.10
2019,06,27,12,04,395.60
2019,06,27,12,05,407.30
2019,06,27,12,06,412.10
2019,06,27,12,07,406.70
2019,06,27,12,08,398.40
2019,06,27,12,09,389.70
2019,06,27,12,10,391.90
2019,06,27,12,11,407.30
2019,06,27,12,12,428.50
2019,06,27,12,13,448.00
2019,06,27,12,14,470.80
2019,06,27,12,15,484.30
2019,06,27,12,16,489.10
2019,06,27,12,17,480.20
2019,06,27,12,18,465.50
2019,06,27,12,19,454.70
2019,06,27,12,20,450.60
2019,06,27,12,21,452.80
2019,06,27,12,22,457.50
2019,06,27,12,23,454.10
2019,06,27,12,24,442.90
2019,06,27,12,25,427.10
2019,06,27,12,26,414.30
2019,06,27,12,27,411.00
2019,06,27,12,28,401.20
2019,06,27,12,29,392.10
2019,06,27,12,30,387.90
2019,06,27,12,31,382.80
2019,06,27,12,32,377.50
2019,06,27,12,33,373.90
2019,06,27,12,34,373.70
2019,06,27,12,35,378.20
2019,06,27,12,36,387.00
2019,06,27,12,37,399.10
2019,06,27,12,38,411.40
2019,06,27,12,39,426.80
2019,06,27,12,40,441.50
2019,06,27,12,41,453.70
2019,06,27,12,42,461.90
2019,06,27,12,43,472.40
2019,06,27,12,44,483.70
2019,06,27,12,45,487.00
2019,06,27,12,46,478.40
2019,06,27,12,47,472.10
2019,06,27,12,48,469.60
2019,06,27,12,49,466.90
2019,06,27,12,50,472.30
2019,06,27,12,51,490.40
2019,06,27,12,52,497.00
2019,06,27,12,53,497.00
2019,06,27,12,54,497.00
2019,06,27,12,55,574.70
2019,06,27,12,56,619.20
2019,06,27,12,57,594.60
2019,06,27,12,58,624.70
2019,06,27,12,59,645.80
2019,06,27,13,00,648.40
2019,06,27,13,01,649.00
2019,06,27,13,02,770.80
2019,06,27,13,03,823.00
2019,06,27,13,04,943.40
2019,06,27,13,05,995.00
2019,06,27,13,06,1281.30
2019,06,27,13,07,1369.70
2019,06,27,13,08,1392.10
2019,06,27,13,09,1408.00
2019,06,27,13,10,1181.90
2019,06,27,13,11,1064.70
2019,06,27,13,12,1056.00
2019,06,27,13,13,1056.00
2019,06,27,13,14,1056.00
2019,06,27,13,15,1056.00
2019,06,27,13,16,646.50
2019,06,27,13,17,461.20
2019,06,27,13,18,458.40
2019,06,27,13,19,465.30
2019,06,27,13,20,478.50
2019,06,27,13,21,528.50
2019,06,27,13,22,552.20
2019,06,27,13,23,591.80
2019,06,27,13,24,652.10
2019,06,27,13,25,671.00
2019,06,27,13,26,560.40
2019,06,27,13,27,486.60
2019,06,27,13,28,473.80
2019,06,27,13,29,481.40
2019,06,27,13,30,499.70
2019,06,27,13,31,481.50
2019,06,27,13,32,466.10
2019,06,27,13,33,467.50
2019,06,27,13,34,466.90
2019,06,27,13,35,472.30
2019,06,27,13,36,494.60
2019,06,27,13,37,503.00
2019,06,27,13,38,560.40
2019,06,27,13,39,575.20
2019,06,27,13,40,624.20
2019,06,27,13,41,647.00
2019,06,27,13,42,738.00
2019,06,27,13,43,707.00
2019,06,27,13,44,663.00
2019,06,27,13,45,657.00
2019,06,27,13,46,657.00
2019,06,27,13,47,657.00
2019,06,27,13,48,657.00
2019,06,27,13,49,458.90
2019,06,27,13,50,406.40
2019,06,27,13,51,445.30
2019,06,27,13,52,473.10
2019,06,27,13,53,487.40
2019,06,27,13,54,507.50
2019,06,27,13,55,529.70
2019,06,27,13,56,538.80
2019,06,27,13,57,528.80
2019,06,27,13,58,506.50
2019,06,27,13,59,492.00
2019,06,27,14,00,489.00
2019,06,27,14,01,500.90
2019,06,27,14,02,525.60
2019,06,27,14,03,545.20
2019,06,27,14,04,548.60
2019,06,27,14,05,548.00
2019,06,27,14,06,554.30
2019,06,27,14,07,569.60
2019,06,27,14,08,589.70
2019,06,27,14,09,596.00
2019,06,27,14,10,727.60
2019,06,27,14,11,784.00
2019,06,27,14,12,630.00
2019,06,27,14,13,561.90
2019,06,27,14,14,563.10
2019,06,27,14,15,568.90
2019,06,27,14,16,589.90
2019,06,27,14,17,607.80
2019,06,27,14,18,609.20
2019,06,27,14,19,593.30
2019,06,27,14,20,583.50
2019,06,27,14,21,577.10
2019,06,27,14,22,576.40
2019,06,27,14,23,570.70
2019,06,27,14,24,565.20
2019,06,27,14,25,578.70
2019,06,27,14,26,581.50
2019,06,27,14,27,594.70
2019,06,27,14,28,601.00
2019,06,27,14,29,612.20
2019,06,27,14,30,587.60
2019,06,27,14,31,555.40
2019,06,27,14,32,547.70
2019,06,27,14,33,549.40
2019,06,27,14,34,550.00
2019,06,27,14,35,545.10
2019,06,27,14,36,538.10
2019,06,27,14,37,549.30
2019,06,27,14,38,546.60
2019,06,27,14,39,551.40
2019,06,27,14,40,611.70
2019,06,27,14,41,601.70
2019,06,27,14,42,551.30
2019,06,27,14,43,532.50
2019,06,27,14,44,549.20
2019,06,27,14,45,566.10
2019,06,27,14,46,570.00
2019,06,27,14,47,558.80
2019,06,27,14,48,561.00
2019,06,27,14,49,575.20
2019,06,27,14,50,557.60
2019,06,27,14,51,558.50
2019,06,27,14,52,530.80
2019,06,27,14,53,533.80
2019,06,27,14,54,541.00
2019,06,27,14,55,541.00
2019,06,27,14,56,849.00
2019,06,27,14,57,981.00
2019,06,27,14,58,981.00
2019,06,27,14,59,981.00
2019,06,27,15,00,981.00
2019,06,27,15,01,981.00
2019,06,27,15,02,492.40
2019,06,27,15,03,274.60
2019,06,27,15,04,285.70
2019,06,27,15,05,321.40
2019,06,27,15,06,334.00
2019,06,27,15,07,402.60
2019,06,27,15,08,475.40
2019,06,27,15,09,494.00
2019,06,27,15,10,619.30
2019,06,27,15,11,703.80
2019,06,27,15,12,702.30
2019,06,27,15,13,696.00
2019,06,27,15,14,696.00
2019,06,27,15,15,696.00
2019,06,27,15,16,696.00
2019,06,27,15,17,520.30
2019,06,27,15,18,445.00
2019,06,27,15,19,445.00
2019,06,27,15,20,935.70
2019,06,27,15,21,1113.80
2019,06,27,15,22,1070.60
2019,06,27,15,23,1058.00
2019,06,27,15,24,1058.00
2019,06,27,15,25,1058.00
2019,06,27,15,26,1058.00
2019,06,27,15,27,1058.00
2019,06,27,15,28,1058.00
2019,06,27,15,29,1058.00
2019,06,27,15,30,1058.00
2019,06,27,15,31,1079.00
2019,06,27,15,32,1026.40
2019,06,27,15,33,1042.00
2019,06,27,15,34,1052.30
2019,06,27,15,35,1061.30
2019,06,27,15,36,1054.40
2019,06,27,15,37,1045.50
2019,06,27,15,38,1044.00
2019,06,27,15,39,1044.00
2019,06,27,15,40,1044.00
2019,06,27,15,41,1044.00
2019,06,27,15,42,759.80
2019,06,27,15,43,699.60
2019,06,27,15,44,726.00
2019,06,27,15,45,726.00
2019,06,27,15,46,553.80
2019,06,27,15,47,480.00
2019,06,27,15,48,850.30
2019,06,27,15,49,1047.20
2019,06,27,15,50,1060.00
2019,06,27,15,51,955.40
2019,06,27,15,52,918.00
2019,06,27,15,53,918.00
2019,06,27,15,54,589.00
2019,06,27,15,55,415.60
2019,06,27,15,56,392.80
2019,06,27,15,57,378.20
2019,06,27,15,58,370.20
2019,06,27,15,59,369.00
2019,06,27,16,00,369.00
2019,06,27,16,01,367.60
2019,06,27,16,02,368.40
2019,06,27,16,03,373.90
2019,06,27,16,04,404.70
2019,06,27,16,05,412.80
2019,06,27,16,06,411.00
2019,06,27,16,07,573.40
2019,06,27,16,08,676.60
2019,06,27,16,09,691.00
2019,06,27,16,10,691.00
2019,06,27,16,11,691.00
2019,06,27,16,12,518.80
2019,06,27,16,13,433.80
2019,06,27,16,14,406.60
2019,06,27,16,15,373.90
2019,06,27,16,16,347.90
2019,06,27,16,17,328.40
2019,06,27,16,18,317.40
2019,06,27,16,19,315.00
2019,06,27,16,20,317.20
2019,06,27,16,21,316.60
2019,06,27,16,22,317.40
2019,06,27,16,23,326.40
2019,06,27,16,24,345.40
2019,06,27,16,25,361.80
2019,06,27,16,26,375.80
2019,06,27,16,27,398.20
2019,06,27,16,28,394.80
2019,06,27,16,29,378.10
2019,06,27,16,30,355.50
2019,06,27,16,31,335.40
2019,06,27,16,32,325.10
2019,06,27,16,33,327.20
2019,06,27,16,34,335.30
2019,06,27,16,35,346.40
2019,06,27,16,36,350.00
2019,06,27,16,37,348.60
2019,06,27,16,38,334.70
2019,06,27,16,39,316.40
2019,06,27,16,40,301.20
2019,06,27,16,41,288.60
2019,06,27,16,42,280.10
2019,06,27,16,43,273.80
2019,06,27,16,44,268.30
2019,06,27,16,45,263.50
2019,06,27,16,46,259.20
2019,06,27,16,47,254.30
2019,06,27,16,48,250.90
2019,06,27,16,49,260.50
2019,06,27,16,50,260.10
2019,06,27,16,51,259.40
2019,06,27,16,52,258.60
2019,06,27,16,53,262.90
2019,06,27,16,54,267.80
2019,06,27,16,55,266.20
2019,06,27,16,56,261.50
2019,06,27,16,57,258.50
2019,06,27,16,58,255.90
2019,06,27,16,59,252.20
2019,06,27,17,00,247.50
2019,06,27,17,01,242.50
2019,06,27,17,02,236.10
2019,06,27,17,03,232.50
2019,06,27,17,04,233.40
2019,06,27,17,05,235.40
2019,06,27,17,06,241.60
2019,06,27,17,07,250.30
2019,06,27,17,08,260.70
2019,06,27,17,09,271.00
2019,06,27,17,10,281.70
2019,06,27,17,11,287.10
2019,06,27,17,12,287.30